TimeCST,TemperatureF,Dew PointF,Humidity,Sea Level PressureIn,VisibilityMPH,Wind Direction,Wind SpeedMPH,Gust SpeedMPH,PrecipitationIn,Events,Conditions,WindDirDegrees,DateUTC
12:22 AM,62.6,60.8,94,30.09,10.0,Calm,Calm,-,N/A,,Overcast,0,2013-01-15 06:22:00
12:58 AM,60.1,57.9,93,30.08,4.0,NW,3.5,-,N/A,,Overcast,320,2013-01-15 06:58:00
1:48 AM,59.0,57.2,94,30.08,2.5,Calm,Calm,-,N/A,,Overcast,0,2013-01-15 07:48:00
1:58 AM,59.0,57.9,96,30.07,2.5,Calm,Calm,-,0.00,Rain,Light Rain,0,2013-01-15 07:58:00
2:10 AM,60.8,57.2,88,30.07,3.0,Calm,Calm,-,0.00,Rain,Light Rain,0,2013-01-15 08:10:00
2:49 AM,60.8,59.0,94,30.06,7.0,Calm,Calm,-,0.00,,Overcast,0,2013-01-15 08:49:00
2:58 AM,62.1,60.1,93,30.05,7.0,Calm,Calm,-,0.00,,Overcast,0,2013-01-15 08:58:00
3:58 AM,68.0,66.0,93,30.04,8.0,South,5.8,-,0.00,,Overcast,190,2013-01-15 09:58:00
4:45 AM,69.8,66.2,88,30.05,10.0,South,8.1,-,N/A,,Overcast,180,2013-01-15 10:45:00
4:58 AM,69.1,66.0,90,30.04,9.0,South,8.1,-,N/A,,Overcast,180,2013-01-15 10:58:00
5:44 AM,69.8,66.2,88,30.05,10.0,South,5.8,-,N/A,,Overcast,180,2013-01-15 11:44:00
5:58 AM,69.1,66.0,90,30.04,9.0,South,8.1,-,N/A,,Overcast,170,2013-01-15 11:58:00
6:58 AM,69.1,66.9,93,30.06,9.0,South,6.9,-,N/A,,Overcast,190,2013-01-15 12:58:00
7:58 AM,70.0,66.9,90,30.07,10.0,South,8.1,-,N/A,,Overcast,190,2013-01-15 13:58:00
8:58 AM,72.0,66.9,84,30.07,10.0,South,10.4,-,N/A,,Overcast,180,2013-01-15 14:58:00
9:58 AM,73.0,66.9,81,30.06,10.0,South,9.2,20.7,N/A,,Overcast,190,2013-01-15 15:58:00
10:36 AM,75.2,66.2,73,30.06,10.0,South,9.2,-,N/A,,Overcast,180,2013-01-15 16:36:00
10:58 AM,75.9,66.9,74,30.04,10.0,South,12.7,21.9,N/A,,Overcast,190,2013-01-15 16:58:00
11:49 AM,77.0,68.0,74,30.02,10.0,SSW,12.7,21.9,N/A,,Mostly Cloudy,200,2013-01-15 17:49:00
11:58 AM,75.9,68.0,76,30.01,10.0,South,17.3,24.2,N/A,,Mostly Cloudy,190,2013-01-15 17:58:00
12:07 PM,75.2,66.2,73,30.01,10.0,SSW,13.8,20.7,N/A,,Mostly Cloudy,200,2013-01-15 18:07:00
12:21 PM,75.2,66.2,73,30.01,10.0,SSW,16.1,-,N/A,,Mostly Cloudy,200,2013-01-15 18:21:00
12:33 PM,75.2,66.2,73,30.01,10.0,SSW,13.8,-,N/A,,Mostly Cloudy,200,2013-01-15 18:33:00
12:43 PM,75.2,66.2,73,30.01,10.0,SSW,15.0,-,N/A,,Mostly Cloudy,200,2013-01-15 18:43:00
12:58 PM,75.0,66.9,76,29.99,10.0,SSW,12.7,-,0.00,Rain,Light Rain,200,2013-01-15 18:58:00
1:05 PM,75.2,66.2,73,30.00,9.0,SSW,15.0,-,0.00,Rain,Light Rain,200,2013-01-15 19:05:00
1:38 PM,73.4,69.8,88,30.00,10.0,SSW,12.7,-,0.00,,Overcast,200,2013-01-15 19:38:00
1:43 PM,73.4,68.0,83,30.00,10.0,South,11.5,-,0.00,,Overcast,180,2013-01-15 19:43:00
1:49 PM,73.4,68.0,83,30.00,10.0,South,11.5,-,0.00,,Overcast,180,2013-01-15 19:49:00
1:58 PM,73.0,68.0,84,29.99,10.0,South,10.4,-,0.00,Rain,Light Rain,190,2013-01-15 19:58:00
2:17 PM,71.6,69.8,94,30.00,2.0,SSW,6.9,-,0.02,Rain,Rain,200,2013-01-15 20:17:00
2:22 PM,71.6,69.8,94,30.00,1.5,SSW,6.9,-,0.04,Rain,Heavy Rain,210,2013-01-15 20:22:00
2:38 PM,71.6,69.8,94,30.00,2.5,SSW,9.2,-,0.11,Rain,Rain,200,2013-01-15 20:38:00
2:40 PM,71.6,69.8,94,30.00,3.0,SSW,8.1,-,0.11,Rain,Rain,200,2013-01-15 20:40:00
2:58 PM,71.1,68.0,90,30.00,10.0,SSW,10.4,-,0.11,,Overcast,200,2013-01-15 20:58:00
3:57 PM,71.1,68.0,90,30.01,10.0,South,8.1,-,0.00,Rain,Light Rain,190,2013-01-15 21:57:00
4:58 PM,71.1,68.0,90,30.01,10.0,SSW,11.5,-,0.00,,Overcast,200,2013-01-15 22:58:00
5:58 PM,71.1,68.0,90,30.01,9.0,SSW,9.2,-,N/A,,Overcast,200,2013-01-15 23:58:00
6:58 PM,71.1,68.0,90,30.00,9.0,South,9.2,-,0.00,,Overcast,190,2013-01-16 00:58:00
7:58 PM,71.1,68.0,90,29.99,10.0,South,11.5,-,N/A,,Overcast,180,2013-01-16 01:58:00
8:58 PM,71.1,66.9,87,29.98,10.0,South,8.1,-,N/A,,Overcast,180,2013-01-16 02:58:00
9:58 PM,71.1,66.9,87,29.98,10.0,South,10.4,-,N/A,,Overcast,180,2013-01-16 03:58:00
10:58 PM,70.0,66.9,90,29.97,6.0,South,9.2,-,0.02,Rain,Light Rain,180,2013-01-16 04:58:00
11:21 PM,69.8,66.2,88,29.97,10.0,South,16.1,27.6,0.00,Rain,Light Rain,190,2013-01-16 05:21:00
11:25 PM,69.8,66.2,88,29.98,10.0,South,16.1,27.6,0.00,Rain,Light Rain,190,2013-01-16 05:25:00
11:43 PM,69.8,66.2,88,29.98,10.0,SSW,16.1,21.9,0.00,Rain,Light Rain,200,2013-01-16 05:43:00
11:58 PM,69.1,66.0,90,29.96,10.0,SSW,10.4,-,0.00,,Overcast,200,2013-01-16 05:58:00